sat.trackr.live / text

‹ back to catalog

STARLINK-31416

NORAD 59355 · 2024-060H

PAYLOAD ACTIVE UNKNOWN

§ Identity

Operator
Country
US
Launch date
2024-03-31
Launch site
AFETR
Launch vehicle
Mass (kg)
RCS (m²)

Purposes: comms

External: N2YO · Heavens-Above · Gunter

§ Orbital elements

Epoch: 2026-09-20T22:37:49.689408Z

Period
94.27 min
Inclination
43.0003°
Eccentricity
0.0001219
Mean motion
15.27579569 rev/d
Perigee alt
482.2 km
Apogee alt
483.9 km
Semi-major
6,861.2 km
B*
6.1483e-6
RAAN
237.2235°
Arg perigee
265.3549°
Mean anomaly
94.7163°
Rev number
13,992

§ Raw data

STARLINK-314161 59355U 24060H   26263.94293622 -.00000093  00000+0  61483-5 0  99942 59355  43.0003 237.2235 0001219 265.3549  94.7163 15.27579569139920

JSON: /api/v1/satellites/59355 · /tle

For live sub-satellite position, see the globe view (requires WebGL).

§ Visibility from observer

Set your observer location to see the next 7 days of passes ≥ 10°. The values pass through the URL so the page stays shareable.

No JS? Fill the form by hand. The geolocation button needs JavaScript.